Location: Newark
(51.2000°N, 58.6167°E)
Time: 14:59:10
(UTC+00:00)

X-37B - Visible Passes

Search period start: 18 September 2020 00:00
Search period end: 28 September 2020 00:00
Orbit: 386 x 387 km, 45.0° (Epoch: 15 September)

Date Brightness Start Highest point End Pass type
(mag) Time Alt. Az. Time Alt. Az. Time Alt. Az.
18 Sep 2.0 00:20:31 22° SSW 00:21:32 26° S 00:24:17 10° ESE visible
18 Sep 2.9 23:24:37 17° SE 23:24:37 17° SE 23:25:47 10° ESE visible
19 Sep 2.1 00:56:54 12° WSW 00:59:15 24° S 01:01:53 10° SE visible
20 Sep 2.0 00:01:02 26° S 00:01:02 26° S 00:03:34 10° SE visible
21 Sep 2.3 00:37:31 17° SW 00:38:31 20° SSW 00:40:56 10° SE visible
21 Sep 2.9 23:41:48 16° SSE 23:41:48 16° SSE 23:42:47 10° SE visible
22 Sep 2.9 01:15:04 10° SW 01:16:03 11° SSW 01:17:03 10° S visible
23 Sep 2.8 00:18:28 15° S 00:18:28 15° S 00:19:44 10° SSE visible
